Location: Fort Wayne
(41.1310°N, 85.1290°W)
Time: 20:32:19
(UTC-04:00)

Vanguard 3 - Visible Passes

Search period start: 27 March 2015 00:00
Search period end: 06 April 2015 00:00
Orbit: 510 x 3272 km, 33.3° (Epoch: 27 March)

Date Brightness Start Highest point End Pass type
(mag) Time Alt. Az. Time Alt. Az. Time Alt. Az.
27 Mar 10.9 01:07:47 20° E 01:07:47 20° E 01:11:46 10° E visible
27 Mar 9.8 03:12:25 61° SSE 03:12:25 61° SSE 03:26:15 10° E visible
27 Mar 9.5 05:17:02 32° WSW 05:26:51 63° S 05:38:36 10° ESE visible
27 Mar11.223:58:34E23:58:34E23:25:58SSWvisible
28 Mar 10.3 02:03:11 40° ESE 02:03:11 40° ESE 02:12:39 10° E visible
28 Mar 9.7 04:07:48 56° SW 04:12:10 66° S 04:26:05 10° ESE visible
28 Mar 9.6 06:12:25 15° W 06:27:03 52° SSW 06:37:30 10° SE visible
28 Mar 10.9 22:16:36 10° S 22:18:22 13° SSE 22:18:22 13° SSE visible
29 Mar 10.9 00:53:57 21° E 00:53:57 21° E 00:58:17 10° E visible
29 Mar 9.8 02:58:34 63° SSE 02:58:34 63° SSE 03:12:57 10° E visible
29 Mar 9.6 05:03:10 34° WSW 05:12:56 62° SSW 05:25:30 10° ESE visible
29 Mar 10.8 23:11:58 10° SSW 23:44:42 - E 23:15:41 19° S visible
30 Mar 10.3 01:49:18 41° ESE 01:49:18 41° ESE 01:59:09 10° E visible
30 Mar 9.7 03:53:55 57° SW 03:58:04 67° S 04:12:51 10° ESE visible
30 Mar 9.7 05:58:32 16° W 06:13:08 50° SSW 06:24:19 10° SE visible
30 Mar 10.6 22:01:34 10° S 22:08:24 20° SSE 22:08:24 20° SSE visible
31 Mar 10.8 00:09:49 10° SW 00:40:03 21° E 00:44:35 10° E visible
31 Mar 9.8 02:44:40 64° SSE 02:44:40 64° SSE 02:59:31 10° E visible
31 Mar 9.7 04:49:17 35° WSW 04:58:53 61° SSW 05:12:16 10° ESE visible
31 Mar 9.9 06:57:55 10° W 07:12:35 34° SW 07:22:06 10° SSE visible
31 Mar 10.8 20:55:39 10° SE 20:58:40 11° SE 21:01:15 11° ESE visible
31 Mar 10.3 22:57:41 10° SSW 23:30:49 - E 23:06:04 31° S visible
01 Apr 10.3 01:09:03 10° WSW 01:35:25 41° ESE 01:45:30 10° E visible
01 Apr 9.8 03:40:02 59° SW 03:43:53 67° S 03:59:28 10° ESE visible
01 Apr 9.8 05:44:39 17° W 05:59:05 48° SSW 06:10:58 10° SE visible
01 Apr 10.4 21:46:59 10° S 21:57:47 25° SE 21:59:03 25° SE visible
01 Apr 10.3 23:55:49 10° SW 00:26:12 21° E 00:30:44 10° E visible
02 Apr 9.9 02:30:50 64° SE 02:30:50 64° SE 02:45:57 10° E visible
02 Apr 9.8 04:35:27 36° WSW 04:44:42 59° SSW 04:58:52 10° SE visible
02 Apr 10.1 06:43:42 10° W 06:58:30 31° SW 07:08:30 10° SSE visible
02 Apr 10.6 20:39:11 10° SSE 20:44:29 14° SE 20:52:09 10° ESE visible
02 Apr 10.0 22:43:38 10° SSW 23:17:03 - E 22:56:59 41° SSE visible
03 Apr 10.4 00:55:09 10° WSW 01:21:40 40° ESE 01:31:42 10° E visible
03 Apr 9.8 03:26:18 60° SW 03:29:34 66° S 03:45:57 10° ESE visible
03 Apr 9.9 05:30:56 18° W 05:44:53 45° SSW 05:57:26 10° SE visible
03 Apr 10.2 21:32:42 10° S 21:43:27 28° SE 21:50:09 23° ESE visible
03 Apr 9.9 23:42:00 10° SW 00:12:37 20° E 00:16:43 10° E visible
04 Apr 9.9 01:55:16 10° WSW 02:17:15 62° SE 02:32:15 10° ESE visible
04 Apr 9.9 04:21:53 38° WSW 04:30:24 56° SSW 04:45:19 10° SE visible
04 Apr 10.2 06:29:34 10° W 06:44:18 29° SW 06:54:38 10° S visible
04 Apr 10.5 20:23:58 10° SSE 20:30:18 16° SE 20:39:24 10° E visible
04 Apr 9.9 22:29:47 10° SSW 22:42:56 44° SSE 22:48:07 38° ESE visible
05 Apr 10.0 00:41:22 10° WSW 01:08:22 37° ESE 01:17:46 10° E visible
05 Apr 9.8 02:55:55 10° W 03:15:12 64° SSW 03:32:17 10° ESE visible
05 Apr 10.0 05:17:40 20° W 05:30:33 42° SSW 05:43:42 10° SSE visible
05 Apr 10.1 21:18:41 10° SSW 21:29:10 31° SE 21:41:08 16° E visible
